Year,Month,Day,Hour,Minute,Value (Times are PST for temperature in C)
2010,08,05,00,00,20.40
2010,08,05,00,05,20.40
2010,08,05,00,06,20.40
2010,08,05,00,07,20.40
2010,08,05,00,08,20.30
2010,08,05,00,09,20.30
2010,08,05,00,10,20.30
2010,08,05,00,11,20.20
2010,08,05,00,12,20.20
2010,08,05,00,13,20.20
2010,08,05,00,14,20.20
2010,08,05,00,15,20.20
2010,08,05,00,16,20.20
2010,08,05,00,17,20.20
2010,08,05,00,18,20.20
2010,08,05,00,19,20.20
2010,08,05,00,20,20.10
2010,08,05,00,21,20.20
2010,08,05,00,22,20.20
2010,08,05,00,23,20.10
2010,08,05,00,24,20.10
2010,08,05,00,25,20.10
2010,08,05,00,26,20.10
2010,08,05,00,27,20.10
2010,08,05,00,28,20.10
2010,08,05,00,29,20.00
2010,08,05,00,30,20.00
2010,08,05,00,31,20.00
2010,08,05,00,32,20.00
2010,08,05,00,33,20.00
2010,08,05,00,34,20.00
2010,08,05,00,35,20.00
2010,08,05,00,36,20.00
2010,08,05,00,37,19.90
2010,08,05,00,38,19.90
2010,08,05,00,39,19.90
2010,08,05,00,40,19.90
2010,08,05,00,41,19.90
2010,08,05,00,42,19.80
2010,08,05,00,43,19.80
2010,08,05,00,44,19.80
2010,08,05,00,45,19.80
2010,08,05,00,46,19.80
2010,08,05,00,47,19.80
2010,08,05,00,48,19.80
2010,08,05,00,49,19.80
2010,08,05,00,50,19.80
2010,08,05,00,51,19.80
2010,08,05,00,52,19.70
2010,08,05,00,53,19.70
2010,08,05,00,54,19.70
2010,08,05,00,55,19.70
2010,08,05,00,56,19.70
2010,08,05,00,57,19.70
2010,08,05,00,58,19.70
2010,08,05,00,59,19.60
2010,08,05,01,00,19.60
2010,08,05,01,01,19.60
2010,08,05,01,02,19.50
2010,08,05,01,03,19.50
2010,08,05,01,04,19.40
2010,08,05,01,05,19.40
2010,08,05,01,06,19.40
2010,08,05,01,07,19.40
2010,08,05,01,08,19.40
2010,08,05,01,09,19.40
2010,08,05,01,10,19.40
2010,08,05,01,11,19.40
2010,08,05,01,12,19.40
2010,08,05,01,13,19.40
2010,08,05,01,14,19.40
2010,08,05,01,15,19.30
2010,08,05,01,16,19.30
2010,08,05,01,17,19.30
2010,08,05,01,18,19.30
2010,08,05,01,19,19.30
2010,08,05,01,20,19.30
2010,08,05,01,21,19.30
2010,08,05,01,22,19.30
2010,08,05,01,23,19.30
2010,08,05,01,24,19.20
2010,08,05,01,25,19.20
2010,08,05,01,26,19.20
2010,08,05,01,27,19.20
2010,08,05,01,28,19.20
2010,08,05,01,29,19.20
2010,08,05,01,30,19.20
2010,08,05,01,31,19.20
2010,08,05,01,32,19.20
2010,08,05,01,33,19.20
2010,08,05,01,34,19.10
2010,08,05,01,35,19.10
2010,08,05,01,36,19.20
2010,08,05,01,37,19.20
2010,08,05,01,38,19.20
2010,08,05,01,39,19.20
2010,08,05,01,40,19.20
2010,08,05,01,41,19.20
2010,08,05,01,42,19.20
2010,08,05,01,43,19.20
2010,08,05,01,44,19.20
2010,08,05,01,45,19.20
2010,08,05,01,46,19.10
2010,08,05,01,47,19.10
2010,08,05,01,48,19.10
2010,08,05,01,49,19.10
2010,08,05,01,50,19.10
2010,08,05,01,51,19.10
2010,08,05,01,52,19.10
2010,08,05,01,53,19.10
2010,08,05,01,54,19.00
2010,08,05,01,55,19.00
2010,08,05,01,56,19.00
2010,08,05,01,57,18.90
2010,08,05,01,58,18.90
2010,08,05,01,59,18.90
2010,08,05,02,00,18.80
2010,08,05,02,01,18.80
2010,08,05,02,02,18.70
2010,08,05,02,03,18.70
2010,08,05,02,04,18.70
2010,08,05,02,05,18.60
2010,08,05,02,06,18.60
2010,08,05,02,07,18.60
2010,08,05,02,08,18.60
2010,08,05,02,09,18.60
2010,08,05,02,10,18.70
2010,08,05,02,11,18.70
2010,08,05,02,12,18.70
2010,08,05,02,13,18.70
2010,08,05,02,14,18.70
2010,08,05,02,15,18.70
2010,08,05,02,16,18.70
2010,08,05,02,17,18.60
2010,08,05,02,18,18.60
2010,08,05,02,19,18.60
2010,08,05,02,20,18.60
2010,08,05,02,21,18.60
2010,08,05,02,22,18.60
2010,08,05,02,23,18.60
2010,08,05,02,24,18.60
2010,08,05,02,25,18.60
2010,08,05,02,26,18.60
2010,08,05,02,27,18.60
2010,08,05,02,28,18.60
2010,08,05,02,29,18.60
2010,08,05,02,30,18.60
2010,08,05,02,31,18.60
2010,08,05,02,32,18.60
2010,08,05,02,33,18.60
2010,08,05,02,34,18.60
2010,08,05,02,35,18.60
2010,08,05,02,36,18.60
2010,08,05,02,37,18.60
2010,08,05,02,38,18.60
2010,08,05,02,39,18.60
2010,08,05,02,40,18.60
2010,08,05,02,41,18.60
2010,08,05,02,42,18.60
2010,08,05,02,43,18.60
2010,08,05,02,44,18.60
2010,08,05,02,45,18.60
2010,08,05,02,46,18.60
2010,08,05,02,47,18.50
2010,08,05,02,48,18.50
2010,08,05,02,49,18.50
2010,08,05,02,50,18.40
2010,08,05,02,51,18.40
2010,08,05,02,52,18.40
2010,08,05,02,53,18.40
2010,08,05,02,54,18.50
2010,08,05,02,55,18.50
2010,08,05,02,56,18.50
2010,08,05,02,57,18.50
2010,08,05,02,58,18.50
2010,08,05,02,59,18.50
2010,08,05,03,00,18.50
2010,08,05,03,01,18.50
2010,08,05,03,02,18.50
2010,08,05,03,03,18.50
2010,08,05,03,04,18.50
2010,08,05,03,05,18.50
2010,08,05,03,06,18.60
2010,08,05,03,07,18.60
2010,08,05,03,08,18.50
2010,08,05,03,09,18.50
2010,08,05,03,10,18.40
2010,08,05,03,11,18.40
2010,08,05,03,12,18.40
2010,08,05,03,13,18.40
2010,08,05,03,14,18.30
2010,08,05,03,15,18.30
2010,08,05,03,16,18.30
2010,08,05,03,17,18.20
2010,08,05,03,18,18.20
2010,08,05,03,19,18.20
2010,08,05,03,20,18.30
2010,08,05,03,21,18.30
2010,08,05,03,22,18.30
2010,08,05,03,23,18.30
2010,08,05,03,24,18.30
2010,08,05,03,25,18.30
2010,08,05,03,26,18.30
2010,08,05,03,27,18.30
2010,08,05,03,28,18.40
2010,08,05,03,29,18.40
2010,08,05,03,30,18.40
2010,08,05,03,31,18.50
2010,08,05,03,32,18.50
2010,08,05,03,33,18.50
2010,08,05,03,34,18.50
2010,08,05,03,35,18.50
2010,08,05,03,36,18.50
2010,08,05,03,37,18.40
2010,08,05,03,38,18.40
2010,08,05,03,39,18.40
2010,08,05,03,40,18.40
2010,08,05,03,41,18.30
2010,08,05,03,42,18.30
2010,08,05,03,43,18.30
2010,08,05,03,44,18.20
2010,08,05,03,45,18.20
2010,08,05,03,46,18.20
2010,08,05,03,47,18.20
2010,08,05,03,48,18.20
2010,08,05,03,49,18.20
2010,08,05,03,50,18.20
2010,08,05,03,51,18.20
2010,08,05,03,52,18.20
2010,08,05,03,53,18.10
2010,08,05,03,54,18.10
2010,08,05,03,55,18.10
2010,08,05,03,56,18.00
2010,08,05,03,57,18.00
2010,08,05,03,58,17.90
2010,08,05,03,59,17.90
2010,08,05,04,00,17.90
2010,08,05,04,01,17.90
2010,08,05,04,02,17.90
2010,08,05,04,03,17.90
2010,08,05,04,04,17.90
2010,08,05,04,05,17.90
2010,08,05,04,06,18.00
2010,08,05,04,07,18.00
2010,08,05,04,08,18.00
2010,08,05,04,09,17.90
2010,08,05,04,10,17.90
2010,08,05,04,11,17.90
2010,08,05,04,12,17.80
2010,08,05,04,13,17.80
2010,08,05,04,14,17.80
2010,08,05,04,15,17.80
2010,08,05,04,16,17.80
2010,08,05,04,17,17.80
2010,08,05,04,18,17.70
2010,08,05,04,19,17.70
2010,08,05,04,20,17.70
2010,08,05,04,21,17.70
2010,08,05,04,22,17.60
2010,08,05,04,23,17.60
2010,08,05,04,24,17.60
2010,08,05,04,25,17.60
2010,08,05,04,26,17.60
2010,08,05,04,27,17.60
2010,08,05,04,28,17.60
2010,08,05,04,29,17.60
2010,08,05,04,30,17.60
2010,08,05,04,31,17.60
2010,08,05,04,32,17.60
2010,08,05,04,33,17.60
2010,08,05,04,34,17.60
2010,08,05,04,35,17.70
2010,08,05,04,36,17.70
2010,08,05,04,37,17.60
2010,08,05,04,38,17.60
2010,08,05,04,39,17.60
2010,08,05,04,40,17.60
2010,08,05,04,41,17.60
2010,08,05,04,42,17.50
2010,08,05,04,43,17.50
2010,08,05,04,44,17.50
2010,08,05,04,45,17.50
2010,08,05,04,46,17.50
2010,08,05,04,47,17.50
2010,08,05,04,48,17.50
2010,08,05,04,49,17.40
2010,08,05,04,50,17.40
2010,08,05,04,51,17.40
2010,08,05,04,52,17.40
2010,08,05,04,53,17.40
2010,08,05,04,54,17.40
2010,08,05,04,55,17.40
2010,08,05,04,56,17.40
2010,08,05,04,57,17.40
2010,08,05,04,58,17.40
2010,08,05,04,59,17.30
2010,08,05,05,00,17.30
2010,08,05,05,01,17.30
2010,08,05,05,02,17.30
2010,08,05,05,03,17.30
2010,08,05,05,04,17.30
2010,08,05,05,05,17.30
2010,08,05,05,06,17.30
2010,08,05,05,07,17.30
2010,08,05,05,08,17.30
2010,08,05,05,09,17.30
2010,08,05,05,10,17.20
2010,08,05,05,11,17.20
2010,08,05,05,12,17.10
2010,08,05,05,13,17.10
2010,08,05,05,14,17.10
2010,08,05,05,15,17.10
2010,08,05,05,16,17.00
2010,08,05,05,17,17.00
2010,08,05,05,18,16.90
2010,08,05,05,19,16.90
2010,08,05,05,20,16.90
2010,08,05,05,21,16.90
2010,08,05,05,22,16.80
2010,08,05,05,23,16.80
2010,08,05,05,24,16.80
2010,08,05,05,25,16.80
2010,08,05,05,26,16.80
2010,08,05,05,27,16.80
2010,08,05,05,28,16.90
2010,08,05,05,29,16.90
2010,08,05,05,30,16.90
2010,08,05,05,31,17.00
2010,08,05,05,32,17.00
2010,08,05,05,33,17.10
2010,08,05,05,34,17.10
2010,08,05,05,35,17.10
2010,08,05,05,36,17.10
2010,08,05,05,37,17.10
2010,08,05,05,38,17.00
2010,08,05,05,39,17.00
2010,08,05,05,40,17.00
2010,08,05,05,41,17.00
2010,08,05,05,42,16.90
2010,08,05,05,43,16.90
2010,08,05,05,44,16.80
2010,08,05,05,45,16.90
2010,08,05,05,46,16.90
2010,08,05,05,47,17.00
2010,08,05,05,48,17.10
2010,08,05,05,49,17.20
2010,08,05,05,50,17.20
2010,08,05,05,51,17.30
2010,08,05,05,52,17.30
2010,08,05,05,53,17.30
2010,08,05,05,54,17.30
2010,08,05,05,55,17.30
2010,08,05,05,56,17.30
2010,08,05,05,57,17.30
2010,08,05,05,58,17.30
2010,08,05,05,59,17.20
2010,08,05,06,00,17.20
2010,08,05,06,01,17.20
2010,08,05,06,02,17.10
2010,08,05,06,03,17.10
2010,08,05,06,04,17.10
2010,08,05,06,05,17.10
2010,08,05,06,06,17.10
2010,08,05,06,07,17.10
2010,08,05,06,08,17.00
2010,08,05,06,09,17.00
2010,08,05,06,10,17.00
2010,08,05,06,11,16.90
2010,08,05,06,12,16.90
2010,08,05,06,13,16.90
2010,08,05,06,14,16.80
2010,08,05,06,15,16.80
2010,08,05,06,16,16.80
2010,08,05,06,17,16.80
2010,08,05,06,18,16.70
2010,08,05,06,19,16.70
2010,08,05,06,20,16.70
2010,08,05,06,21,16.70
2010,08,05,06,22,16.70
2010,08,05,06,23,16.70
2010,08,05,06,24,16.70
2010,08,05,06,25,16.60
2010,08,05,06,26,16.60
2010,08,05,06,27,16.60
2010,08,05,06,28,16.60
2010,08,05,06,29,16.60
2010,08,05,06,30,16.60
2010,08,05,06,31,16.60
2010,08,05,06,32,16.60
2010,08,05,06,33,16.60
2010,08,05,06,34,16.50
2010,08,05,06,35,16.50
2010,08,05,06,36,16.50
2010,08,05,06,37,16.50
2010,08,05,06,38,16.40
2010,08,05,06,39,16.40
2010,08,05,06,40,16.40
2010,08,05,06,41,16.40
2010,08,05,06,42,16.40
2010,08,05,06,43,16.40
2010,08,05,06,44,16.40
2010,08,05,06,45,16.40
2010,08,05,06,46,16.40
2010,08,05,06,47,16.40
2010,08,05,06,48,16.40
2010,08,05,06,49,16.40
2010,08,05,06,50,16.40
2010,08,05,06,51,16.40
2010,08,05,06,52,16.50
2010,08,05,06,53,16.50
2010,08,05,06,54,16.50
2010,08,05,06,55,16.60
2010,08,05,06,56,16.60
2010,08,05,06,57,16.60
2010,08,05,06,58,16.60
2010,08,05,06,59,16.60
2010,08,05,07,00,16.60
2010,08,05,07,01,16.70
2010,08,05,07,02,16.70
2010,08,05,07,03,16.70
2010,08,05,07,04,16.70
2010,08,05,07,05,16.70
2010,08,05,07,06,16.70
2010,08,05,07,07,16.70
2010,08,05,07,08,16.70
2010,08,05,07,09,16.70
2010,08,05,07,10,16.70
2010,08,05,07,11,16.70
2010,08,05,07,12,16.70
2010,08,05,07,13,16.70
2010,08,05,07,14,16.70
2010,08,05,07,15,16.70
2010,08,05,07,16,16.80
2010,08,05,07,17,16.80
2010,08,05,07,18,16.80
2010,08,05,07,19,16.80
2010,08,05,07,20,16.90
2010,08,05,07,21,16.90
2010,08,05,07,22,16.90
2010,08,05,07,23,16.90
2010,08,05,07,24,17.00
2010,08,05,07,25,17.00
2010,08,05,07,26,17.00
2010,08,05,07,27,17.10
2010,08,05,07,28,17.10
2010,08,05,07,29,17.20
2010,08,05,07,30,17.20
2010,08,05,07,31,17.30
2010,08,05,07,32,17.30
2010,08,05,07,33,17.30
2010,08,05,07,34,17.40
2010,08,05,07,35,17.40
2010,08,05,07,36,17.40
2010,08,05,07,37,17.50
2010,08,05,07,38,17.50
2010,08,05,07,39,17.50
2010,08,05,07,40,17.60
2010,08,05,07,41,17.60
2010,08,05,07,42,17.60
2010,08,05,07,43,17.60
2010,08,05,07,44,17.70
2010,08,05,07,45,17.70
2010,08,05,07,46,17.70
2010,08,05,07,47,17.80
2010,08,05,07,48,17.80
2010,08,05,07,49,17.80
2010,08,05,07,50,17.80
2010,08,05,07,51,17.90
2010,08,05,07,52,17.90
2010,08,05,07,53,17.90
2010,08,05,07,54,17.90
2010,08,05,07,55,17.90
2010,08,05,07,56,18.00
2010,08,05,07,57,18.00
2010,08,05,07,58,18.00
2010,08,05,07,59,18.10
2010,08,05,08,00,18.10
2010,08,05,08,01,18.10
2010,08,05,08,02,18.10
2010,08,05,08,03,18.10
2010,08,05,08,04,18.10
2010,08,05,08,05,18.10
2010,08,05,08,06,18.20
2010,08,05,08,07,18.20
2010,08,05,08,08,18.20
2010,08,05,08,09,18.20
2010,08,05,08,10,18.20
2010,08,05,08,11,18.20
2010,08,05,08,12,18.20
2010,08,05,08,13,18.30
2010,08,05,08,14,18.30
2010,08,05,08,15,18.30
2010,08,05,08,16,18.30
2010,08,05,08,17,18.30
2010,08,05,08,18,18.30
2010,08,05,08,19,18.40
2010,08,05,08,20,18.40
2010,08,05,08,21,18.50
2010,08,05,08,22,18.50
2010,08,05,08,23,18.60
2010,08,05,08,24,18.60
2010,08,05,08,25,18.70
2010,08,05,08,26,18.80
2010,08,05,08,27,18.80
2010,08,05,08,28,18.80
2010,08,05,08,29,18.90
2010,08,05,08,30,18.90
2010,08,05,08,31,19.00
2010,08,05,08,32,19.10
2010,08,05,08,33,19.20
2010,08,05,08,34,19.20
2010,08,05,08,35,19.20
2010,08,05,08,36,19.30
2010,08,05,08,37,19.30
2010,08,05,08,38,19.40
2010,08,05,08,39,19.40
2010,08,05,08,40,19.50
2010,08,05,08,41,19.60
2010,08,05,08,42,19.70
2010,08,05,08,43,19.70
2010,08,05,08,44,19.80
2010,08,05,08,45,19.90
2010,08,05,08,46,19.90
2010,08,05,08,47,20.00
2010,08,05,08,48,20.10
2010,08,05,08,49,20.10
2010,08,05,08,50,20.20
2010,08,05,08,51,20.20
2010,08,05,08,52,20.20
2010,08,05,08,53,20.30
2010,08,05,08,54,20.30
2010,08,05,08,55,20.30
2010,08,05,08,56,20.40
2010,08,05,08,57,20.40
2010,08,05,08,58,20.50
2010,08,05,08,59,20.60
2010,08,05,09,00,20.60
2010,08,05,09,01,20.70
2010,08,05,09,02,20.70
2010,08,05,09,03,20.80
2010,08,05,09,04,20.80
2010,08,05,09,05,20.80
2010,08,05,09,06,20.90
2010,08,05,09,07,20.90
2010,08,05,09,08,20.90
2010,08,05,09,09,20.90
2010,08,05,09,10,21.00
2010,08,05,09,11,21.00
2010,08,05,09,12,21.00
2010,08,05,09,13,21.00
2010,08,05,09,14,21.00
2010,08,05,09,15,21.00
2010,08,05,09,16,21.00
2010,08,05,09,17,21.00
2010,08,05,09,18,21.00
2010,08,05,09,19,21.00
2010,08,05,09,20,21.00
2010,08,05,09,21,21.00
2010,08,05,09,22,21.00
2010,08,05,09,23,21.00
2010,08,05,09,24,21.00
2010,08,05,09,25,21.00
2010,08,05,09,26,21.00
2010,08,05,09,27,21.00
2010,08,05,09,28,21.00
2010,08,05,09,29,21.00
2010,08,05,09,30,21.00
2010,08,05,09,31,21.00
2010,08,05,09,32,21.00
2010,08,05,09,33,21.10
2010,08,05,09,34,21.10
2010,08,05,09,35,21.10
2010,08,05,09,36,21.10
2010,08,05,09,37,21.10
2010,08,05,09,38,21.10
2010,08,05,09,39,21.10
2010,08,05,09,40,21.10
2010,08,05,09,41,21.10
2010,08,05,09,42,21.20
2010,08,05,09,43,21.20
2010,08,05,09,44,21.30
2010,08,05,09,45,21.30
2010,08,05,09,46,21.30
2010,08,05,09,47,21.30
2010,08,05,09,48,21.30
2010,08,05,09,49,21.30
2010,08,05,09,50,21.30
2010,08,05,09,51,21.30
2010,08,05,09,52,21.30
2010,08,05,09,53,21.30
2010,08,05,09,54,21.30
2010,08,05,09,55,21.30
2010,08,05,09,56,21.30
2010,08,05,09,57,21.30
2010,08,05,09,58,21.30
2010,08,05,09,59,21.30
2010,08,05,10,00,21.40
2010,08,05,10,01,21.40
2010,08,05,10,02,21.30
2010,08,05,10,03,21.30
2010,08,05,10,04,21.20
2010,08,05,10,05,21.20
2010,08,05,10,06,21.20
2010,08,05,10,07,21.10
2010,08,05,10,08,21.10
2010,08,05,10,09,21.10
2010,08,05,10,10,21.10
2010,08,05,10,11,21.00
2010,08,05,10,12,21.00
2010,08,05,10,13,21.00
2010,08,05,10,14,20.90
2010,08,05,10,15,20.90
2010,08,05,10,16,21.00
2010,08,05,10,17,21.10
2010,08,05,10,18,21.10
2010,08,05,10,19,21.20
2010,08,05,10,20,21.30
2010,08,05,10,21,21.30
2010,08,05,10,22,21.40
2010,08,05,10,23,21.40
2010,08,05,10,24,21.40
2010,08,05,10,25,21.40
2010,08,05,10,26,21.50
2010,08,05,10,27,21.50
2010,08,05,10,28,21.60
2010,08,05,10,29,21.60
2010,08,05,10,30,21.70
2010,08,05,10,31,21.70
2010,08,05,10,32,21.70
2010,08,05,10,33,21.70
2010,08,05,10,34,21.70
2010,08,05,10,35,21.70
2010,08,05,10,36,21.60
2010,08,05,10,37,21.60
2010,08,05,10,38,21.50
2010,08,05,10,39,21.50
2010,08,05,10,40,21.40
2010,08,05,10,41,21.40
2010,08,05,10,42,21.40
2010,08,05,10,43,21.40
2010,08,05,10,44,21.40
2010,08,05,10,45,21.40
2010,08,05,10,46,21.40
2010,08,05,10,47,21.40
2010,08,05,10,48,21.40
2010,08,05,10,49,21.40
2010,08,05,10,50,21.40
2010,08,05,10,51,21.40
2010,08,05,10,52,21.30
2010,08,05,10,53,21.30
2010,08,05,10,54,21.20
2010,08,05,10,55,21.20
2010,08,05,10,56,21.30
2010,08,05,10,57,21.30
2010,08,05,10,58,21.40
2010,08,05,10,59,21.30
2010,08,05,11,00,21.30
2010,08,05,11,01,21.30
2010,08,05,11,02,21.30
2010,08,05,11,03,21.40
2010,08,05,11,04,21.50
2010,08,05,11,05,21.60
2010,08,05,11,06,21.60
2010,08,05,11,07,21.70
2010,08,05,11,08,21.60
2010,08,05,11,09,21.60
2010,08,05,11,10,21.60
2010,08,05,11,11,21.60
2010,08,05,11,12,21.70
2010,08,05,11,13,21.70
2010,08,05,11,14,21.80
2010,08,05,11,15,21.80
2010,08,05,11,16,21.90
2010,08,05,11,17,21.90
2010,08,05,11,18,22.00
2010,08,05,11,19,22.00
2010,08,05,11,20,22.10
2010,08,05,11,21,22.10
2010,08,05,11,22,22.10
2010,08,05,11,23,22.10
2010,08,05,11,24,22.20
2010,08,05,11,25,22.20
2010,08,05,11,26,22.20
2010,08,05,11,27,22.20
2010,08,05,11,28,22.20
2010,08,05,11,29,22.20
2010,08,05,11,30,22.20
2010,08,05,11,31,22.20
2010,08,05,11,32,22.20
2010,08,05,11,33,22.20
2010,08,05,11,34,22.20
2010,08,05,11,35,22.20
2010,08,05,11,36,22.30
2010,08,05,11,37,22.30
2010,08,05,11,38,22.40
2010,08,05,11,39,22.40
2010,08,05,11,40,22.50
2010,08,05,11,41,22.60
2010,08,05,11,42,22.60
2010,08,05,11,43,22.70
2010,08,05,11,44,22.80
2010,08,05,11,45,22.80
2010,08,05,11,46,22.80
2010,08,05,11,47,22.90
2010,08,05,11,48,22.90
2010,08,05,11,49,22.90
2010,08,05,11,50,22.90
2010,08,05,11,51,22.90
2010,08,05,11,52,23.00
2010,08,05,11,53,23.00
2010,08,05,11,54,23.10
2010,08,05,11,55,23.10
2010,08,05,11,56,23.20
2010,08,05,11,57,23.30
2010,08,05,11,58,23.30
2010,08,05,11,59,23.30
2010,08,05,12,00,23.30
2010,08,05,12,01,23.30
2010,08,05,12,02,23.20
2010,08,05,12,03,23.20
2010,08,05,12,04,23.10
2010,08,05,12,05,23.00
2010,08,05,12,06,23.00
2010,08,05,12,07,22.90
2010,08,05,12,08,22.90
2010,08,05,12,09,22.90
2010,08,05,12,10,22.90
2010,08,05,12,11,22.90
2010,08,05,12,12,22.90
2010,08,05,12,13,22.90
2010,08,05,12,14,22.90
2010,08,05,12,15,22.90
2010,08,05,12,16,22.90
2010,08,05,12,17,22.90
2010,08,05,12,18,22.90
2010,08,05,12,19,23.00
2010,08,05,12,20,23.00
2010,08,05,12,21,23.10
2010,08,05,12,22,23.20
2010,08,05,12,23,23.30
2010,08,05,12,24,23.40
2010,08,05,12,25,23.40
2010,08,05,12,26,23.40
2010,08,05,12,27,23.40
2010,08,05,12,28,23.50
2010,08,05,12,29,23.60
2010,08,05,12,30,23.60
2010,08,05,12,31,23.70
2010,08,05,12,32,23.70
2010,08,05,12,33,23.60
2010,08,05,12,34,23.60
2010,08,05,12,35,23.50
2010,08,05,12,36,23.50
2010,08,05,12,37,23.40
2010,08,05,12,38,23.30
2010,08,05,12,39,23.20
2010,08,05,12,40,23.20
2010,08,05,12,41,23.20
2010,08,05,12,42,23.20
2010,08,05,12,43,23.20
2010,08,05,12,44,23.20
2010,08,05,12,45,23.20
2010,08,05,12,46,23.30
2010,08,05,12,47,23.30
2010,08,05,12,48,23.30
2010,08,05,12,49,23.30
2010,08,05,12,50,23.30
2010,08,05,12,51,23.30
2010,08,05,12,52,23.30
2010,08,05,12,53,23.20
2010,08,05,12,54,23.10
2010,08,05,12,55,23.00
2010,08,05,12,56,22.90
2010,08,05,12,57,22.80
2010,08,05,12,58,22.80
2010,08,05,12,59,22.70
2010,08,05,13,00,22.60
2010,08,05,13,01,22.60
2010,08,05,13,02,22.50
2010,08,05,13,03,22.50
2010,08,05,13,04,22.40
2010,08,05,13,05,22.40
2010,08,05,13,06,22.30
2010,08,05,13,07,22.30
2010,08,05,13,08,22.30
2010,08,05,13,09,22.30
2010,08,05,13,10,22.40
2010,08,05,13,11,22.40
2010,08,05,13,12,22.50
2010,08,05,13,13,22.50
2010,08,05,13,14,22.50
2010,08,05,13,15,22.50
2010,08,05,13,16,22.50
2010,08,05,13,17,22.40
2010,08,05,13,18,22.30
2010,08,05,13,19,22.30
2010,08,05,13,20,22.20
2010,08,05,13,21,22.20
2010,08,05,13,22,22.10
2010,08,05,13,23,22.00
2010,08,05,13,24,22.00
2010,08,05,13,25,21.90
2010,08,05,13,26,21.90
2010,08,05,13,27,21.90
2010,08,05,13,28,21.90
2010,08,05,13,29,21.80
2010,08,05,13,30,21.80
2010,08,05,13,31,21.80
2010,08,05,13,32,21.90
2010,08,05,13,33,22.00
2010,08,05,13,34,22.00
2010,08,05,13,35,22.10
2010,08,05,13,36,22.10
2010,08,05,13,37,22.10
2010,08,05,13,38,22.10
2010,08,05,13,39,22.20
2010,08,05,13,40,22.30
2010,08,05,13,41,22.30
2010,08,05,13,42,22.30
2010,08,05,13,43,22.40
2010,08,05,13,44,22.50
2010,08,05,13,45,22.60
2010,08,05,13,46,22.60
2010,08,05,13,47,22.70
2010,08,05,13,48,22.90
2010,08,05,13,49,22.90
2010,08,05,13,50,23.00
2010,08,05,13,51,23.00
2010,08,05,13,52,22.90
2010,08,05,13,53,22.80
2010,08,05,13,54,22.70
2010,08,05,13,55,22.70
2010,08,05,13,56,22.60
2010,08,05,13,57,22.50
2010,08,05,13,58,22.50
2010,08,05,13,59,22.40
2010,08,05,14,00,22.30
2010,08,05,14,01,22.40
2010,08,05,14,02,22.40
2010,08,05,14,03,22.40
2010,08,05,14,04,22.40
2010,08,05,14,05,22.40
2010,08,05,14,06,22.40
2010,08,05,14,07,22.40
2010,08,05,14,08,22.40
2010,08,05,14,09,22.40
2010,08,05,14,10,22.40
2010,08,05,14,11,22.50
2010,08,05,14,12,22.50
2010,08,05,14,13,22.50
2010,08,05,14,14,22.50
2010,08,05,14,15,22.50
2010,08,05,14,16,22.40
2010,08,05,14,17,22.40
2010,08,05,14,18,22.40
2010,08,05,14,19,22.40
2010,08,05,14,20,22.50
2010,08,05,14,21,22.60
2010,08,05,14,22,22.60
2010,08,05,14,23,22.60
2010,08,05,14,24,22.60
2010,08,05,14,25,22.60
2010,08,05,14,26,22.60
2010,08,05,14,27,22.70
2010,08,05,14,28,22.70
2010,08,05,14,29,22.70
2010,08,05,14,30,22.70
2010,08,05,14,31,22.70
2010,08,05,14,32,22.60
2010,08,05,14,33,22.70
2010,08,05,14,34,22.70
2010,08,05,14,35,22.80
2010,08,05,14,36,22.80
2010,08,05,14,37,22.90
2010,08,05,14,38,23.00
2010,08,05,14,39,23.00
2010,08,05,14,40,23.10
2010,08,05,14,41,23.20
2010,08,05,14,42,23.30
2010,08,05,14,43,23.40
2010,08,05,14,44,23.50
2010,08,05,14,45,23.60
2010,08,05,14,46,23.60
2010,08,05,14,47,23.60
2010,08,05,14,48,23.60
2010,08,05,14,49,23.60
2010,08,05,14,50,23.70
2010,08,05,14,51,23.70
2010,08,05,14,52,23.70
2010,08,05,14,53,23.80
2010,08,05,14,54,23.80
2010,08,05,14,55,23.80
2010,08,05,14,56,23.80
2010,08,05,14,57,23.80
2010,08,05,14,58,23.90
2010,08,05,14,59,23.90
2010,08,05,15,00,23.90
2010,08,05,15,01,23.90
2010,08,05,15,02,23.90
2010,08,05,15,03,23.80
2010,08,05,15,04,23.80
2010,08,05,15,05,23.70
2010,08,05,15,06,23.60
2010,08,05,15,07,23.60
2010,08,05,15,08,23.50
2010,08,05,15,09,23.50
2010,08,05,15,10,23.50
2010,08,05,15,11,23.50
2010,08,05,15,12,23.40
2010,08,05,15,13,23.40
2010,08,05,15,14,23.30
2010,08,05,15,15,23.10
2010,08,05,15,16,23.00
2010,08,05,15,17,22.90
2010,08,05,15,18,22.80
2010,08,05,15,19,22.70
2010,08,05,15,20,22.70
2010,08,05,15,21,22.70
2010,08,05,15,22,22.80
2010,08,05,15,23,22.80
2010,08,05,15,24,22.80
2010,08,05,15,25,22.80
2010,08,05,15,26,22.80
2010,08,05,15,27,22.90
2010,08,05,15,28,22.90
2010,08,05,15,29,23.00
2010,08,05,15,30,23.10
2010,08,05,15,31,23.10
2010,08,05,15,32,23.20
2010,08,05,15,33,23.30
2010,08,05,15,34,23.30
2010,08,05,15,35,23.40
2010,08,05,15,36,23.40
2010,08,05,15,37,23.40
2010,08,05,15,38,23.40
2010,08,05,15,39,23.40
2010,08,05,15,40,23.40
2010,08,05,15,41,23.40
2010,08,05,15,42,23.50
2010,08,05,15,43,23.60
2010,08,05,15,44,23.60
2010,08,05,15,45,23.60
2010,08,05,15,46,23.70
2010,08,05,15,47,23.70
2010,08,05,15,48,23.80
2010,08,05,15,49,23.80
2010,08,05,15,50,24.00
2010,08,05,15,51,24.10
2010,08,05,15,52,24.20
2010,08,05,15,53,24.20
2010,08,05,15,54,24.30
2010,08,05,15,55,24.30
2010,08,05,15,56,24.20
2010,08,05,15,57,24.20
2010,08,05,15,58,24.20
2010,08,05,15,59,24.20
2010,08,05,16,00,24.10
2010,08,05,16,01,24.00
2010,08,05,16,02,23.80
2010,08,05,16,03,23.70
2010,08,05,16,04,23.60
2010,08,05,16,05,23.60
2010,08,05,16,06,23.50
2010,08,05,16,07,23.40
2010,08,05,16,08,23.40
2010,08,05,16,09,23.30
2010,08,05,16,10,23.30
2010,08,05,16,11,23.30
2010,08,05,16,12,23.30
2010,08,05,16,13,23.30
2010,08,05,16,14,23.20
2010,08,05,16,15,23.30
2010,08,05,16,16,23.30
2010,08,05,16,17,23.30
2010,08,05,16,18,23.40
2010,08,05,16,19,23.40
2010,08,05,16,20,23.40
2010,08,05,16,21,23.40
2010,08,05,16,22,23.40
2010,08,05,16,23,23.50
2010,08,05,16,24,23.50
2010,08,05,16,25,23.60
2010,08,05,16,26,23.60
2010,08,05,16,27,23.70
2010,08,05,16,28,23.70
2010,08,05,16,29,23.80
2010,08,05,16,30,23.80
2010,08,05,16,31,23.80
2010,08,05,16,32,23.80
2010,08,05,16,33,23.80
2010,08,05,16,34,23.90
2010,08,05,16,35,23.90
2010,08,05,16,36,23.90
2010,08,05,16,37,23.90
2010,08,05,16,38,23.90
2010,08,05,16,39,23.90
2010,08,05,16,40,24.00
2010,08,05,16,41,24.10
2010,08,05,16,42,24.10
2010,08,05,16,43,24.20
2010,08,05,16,44,24.20
2010,08,05,16,45,24.20
2010,08,05,16,46,24.20
2010,08,05,16,47,24.10
2010,08,05,16,48,24.10
2010,08,05,16,49,24.20
2010,08,05,16,50,24.20
2010,08,05,16,51,24.20
2010,08,05,16,52,24.20
2010,08,05,16,53,24.30
2010,08,05,16,54,24.30
2010,08,05,16,55,24.40
2010,08,05,16,56,24.50
2010,08,05,16,57,24.60
2010,08,05,16,58,24.60
2010,08,05,16,59,24.60
2010,08,05,17,00,24.60
2010,08,05,17,01,24.60
2010,08,05,17,02,24.60
2010,08,05,17,03,24.70
2010,08,05,17,04,24.70
2010,08,05,17,05,24.70
2010,08,05,17,06,24.70
2010,08,05,17,07,24.70
2010,08,05,17,08,24.70
2010,08,05,17,09,24.70
2010,08,05,17,10,24.70
2010,08,05,17,11,24.70
2010,08,05,17,12,24.60
2010,08,05,17,13,24.60
2010,08,05,17,14,24.60
2010,08,05,17,15,24.60
2010,08,05,17,16,24.60
2010,08,05,17,17,24.70
2010,08,05,17,18,24.70
2010,08,05,17,19,24.70
2010,08,05,17,20,24.70
2010,08,05,17,21,24.70
2010,08,05,17,22,24.80
2010,08,05,17,23,24.80